Flag for Western Sahara Weather past 2 weeks in Smara, Western Sahara

Now
55 °F

Clear.


Feels Like: 52 °F
Forecast: 47 / 71 °F
Wind: 14 mph from East

Location: Laayoune/Hassan Isl

Current Time: Dec 22, 2014 at 4:24:21 AM

Latest Report: Dec 22, 2014 at 3:00 AM


Visibility: 5 mi

Pressure: 30.18 "Hg

Humidity: 82%

Dew point: 50 °F

Location of SmaraLocation

Historic Weather in Smara — Graph

°F

Smara temperature yesterday

Maximum temperature yesterday: 73 °F (at 4:00 PM)
Minimum temperature yesterday: 55 °F (at 7:00 AM)
Average temperature yesterday: 64 °F

Past Weeks' High & Low Weather Summary

 TemperatureHumidityPressure
High79 °F (Dec 19, 3:00 PM)100% (Dec 10, 3:00 AM)30.36 "Hg (Dec 10, 3:00 AM)
Low50 °F (Dec 12, 6:00 AM)17% (Dec 19, 3:00 PM)30.09 "Hg (Dec 13, 3:00 PM)
Average63 °F66%30.23 "Hg
* Reported Dec 7 2:00 AM — Dec 22 2:00 AM, Smara, Weather by CustomWeather, © 2014

Note: Actual official high and low records may vary slightly from our data, if they occured in-between our weather recording intervals... More about our weather records

Advertising

Smara weather history for previous 24 hours

 ConditionsComfort  
Time TempWeatherWind HumidityBarometerVisibility
2:00 AM
Dec 22
59 °FClear.14 mph82%30.18 "Hg5 mi
1:00 AM59 °FClear.16 mph88%30.21 "Hg5 mi
12:00 AM59 °FClear.16 mph88%30.30 "Hg5 mi
10:00 PM
Dec 21
61 °FClear.16 mph77%30.21 "Hg5 mi
9:00 PM64 °FClear.14 mph34%30.21 "Hg5 mi
8:00 PM66 °FClear.10 mph32%30.21 "Hg5 mi
7:00 PM68 °FClear.9 mph35%30.18 "Hg5 mi
6:00 PM70 °FClear.8 mph33%30.18 "Hg5 mi
5:00 PM72 °FClear.16 mph27%30.21 "Hg5 mi
4:00 PM73 °FClear.16 mph29%30.18 "Hg5 mi
3:00 PM72 °FClear.16 mph33%30.21 "Hg5 mi
2:00 PM72 °FClear.17 mph33%30.24 "Hg5 mi
1:00 PM70 °FClear.16 mph35%30.24 "Hg5 mi
12:00 PM70 °FClear.16 mph35%30.30 "Hg5 mi
11:00 AM66 °FSunny.10 mph49%30.33 "Hg10 mi
10:00 AM63 °FSunny.9 mph56%30.33 "Hg10 mi
9:00 AM59 °FSunny.9 mph72%30.30 "Hg10 mi
8:00 AM55 °FClear.8 mph82%30.27 "Hg10 mi
7:00 AM55 °FClear.10 mph82%30.27 "Hg10 mi
5:00 AM57 °FClear.9 mph88%30.27 "Hg10 mi
4:00 AM57 °FClear.7 mph88%30.27 "Hg10 mi
Weather by CustomWeather, © 2014

See weather overviewHow to use our weather pages